Time,TemperatureF,DewpointF,PressureIn,WindDirection,WindDirectionDegrees,WindSpeedMPH,WindSpeedGustMPH,Humidity,HourlyPrecipIn,Conditions,Clouds,dailyrainin,SolarRadiationWatts/m^2,SoftwareType,DateUTC
2013-08-10 00:43:00,62.0,23.0,-100.00,SW,214,7.0,12.0,22,0.00,,,0.00,1.000000,,2013-08-10 07:43:00,
2013-08-10 00:52:00,62.0,23.0,-100.00,SW,214,7.0,12.0,22,0.00,,,0.00,1.000000,,2013-08-10 07:52:00,
2013-08-10 01:32:00,61.0,37.0,-100.00,WSW,244,5.0,11.0,41,0.00,,,-99.99,1.000000,,2013-08-10 08:32:00,
2013-08-10 01:43:00,61.0,37.0,-100.00,WSW,244,5.0,11.0,41,0.00,,,-99.99,1.000000,,2013-08-10 08:43:00,
2013-08-10 01:52:00,61.0,37.0,-100.00,WSW,244,5.0,11.0,41,0.00,,,-99.99,1.000000,,2013-08-10 08:52:00,
2013-08-10 02:32:00,59.0,40.0,-100.00,SW,231,5.0,13.0,50,0.00,,,0.00,1.000000,,2013-08-10 09:32:00,
2013-08-10 02:43:00,59.0,40.0,-100.00,SW,231,5.0,13.0,50,0.00,,,0.00,1.000000,,2013-08-10 09:43:00,
2013-08-10 02:52:00,59.0,40.0,-100.00,SW,231,5.0,13.0,50,0.00,,,0.00,1.000000,,2013-08-10 09:52:00,
2013-08-10 03:33:00,61.0,41.0,-100.00,WNW,290,7.0,12.0,48,0.00,,,0.00,1.000000,,2013-08-10 10:33:00,
2013-08-10 03:44:00,61.0,41.0,-100.00,WNW,290,7.0,12.0,48,0.00,,,0.00,1.000000,,2013-08-10 10:44:00,
2013-08-10 03:52:00,61.0,41.0,-100.00,WNW,290,7.0,12.0,48,0.00,,,0.00,1.000000,,2013-08-10 10:52:00,
2013-08-10 07:32:00,62.0,41.0,-100.00,WNW,282,6.0,10.0,46,-99.99,,,0.00,25.000000,,2013-08-10 14:32:00,
2013-08-10 07:42:00,62.0,41.0,-100.00,WNW,282,6.0,10.0,46,-99.99,,,0.00,25.000000,,2013-08-10 14:42:00,
2013-08-10 07:53:00,62.0,41.0,-100.00,WNW,282,6.0,10.0,46,-99.99,,,0.00,25.000000,,2013-08-10 14:53:00,
2013-08-10 08:22:00,65.0,41.0,-100.00,West,272,3.0,9.0,42,0.00,,,0.00,227.000000,,2013-08-10 15:22:00,
2013-08-10 08:33:00,65.0,41.0,-100.00,West,272,3.0,9.0,42,0.00,,,0.00,227.000000,,2013-08-10 15:33:00,
2013-08-10 08:43:00,65.0,41.0,-100.00,West,272,3.0,9.0,42,0.00,,,0.00,227.000000,,2013-08-10 15:43:00,
2013-08-10 08:52:00,65.0,41.0,-100.00,West,272,3.0,9.0,42,0.00,,,0.00,227.000000,,2013-08-10 15:52:00,
2013-08-10 09:43:00,64.0,43.0,-100.00,South,173,5.0,8.0,47,0.00,,,0.00,503.000000,,2013-08-10 16:43:00,
2013-08-10 09:53:00,64.0,43.0,-100.00,South,173,5.0,8.0,47,0.00,,,0.00,503.000000,,2013-08-10 16:53:00,
2013-08-10 10:33:00,67.0,43.0,-100.00,SSE,163,8.0,12.0,42,0.00,,,0.00,735.000000,,2013-08-10 17:33:00,
2013-08-10 10:43:00,67.0,43.0,-100.00,SSE,163,8.0,12.0,42,0.00,,,0.00,735.000000,,2013-08-10 17:43:00,
2013-08-10 10:52:00,67.0,43.0,-100.00,SSE,163,8.0,12.0,42,0.00,,,0.00,735.000000,,2013-08-10 17:52:00,
2013-08-10 11:32:00,72.0,44.0,-100.00,South,181,9.0,13.0,36,0.00,,,0.00,592.000000,,2013-08-10 18:32:00,
2013-08-10 11:43:00,72.0,44.0,-100.00,South,181,9.0,13.0,36,0.00,,,0.00,592.000000,,2013-08-10 18:43:00,
2013-08-10 11:52:00,72.0,44.0,-100.00,South,181,9.0,13.0,36,0.00,,,0.00,592.000000,,2013-08-10 18:52:00,
2013-08-10 12:44:00,73.0,41.0,-100.00,South,184,11.0,17.0,31,0.00,,,-99.99,600.000000,,2013-08-10 19:44:00,
2013-08-10 12:53:00,73.0,41.0,-100.00,South,184,11.0,17.0,31,0.00,,,-99.99,600.000000,,2013-08-10 19:53:00,
2013-08-10 13:33:00,75.0,41.0,-100.00,South,185,13.0,20.0,30,0.00,,,0.00,1025.000000,,2013-08-10 20:33:00,
2013-08-10 13:43:00,75.0,41.0,-100.00,South,185,13.0,20.0,30,0.00,,,0.00,1025.000000,,2013-08-10 20:43:00,
2013-08-10 13:53:00,75.0,41.0,-100.00,South,185,13.0,20.0,30,0.00,,,0.00,1025.000000,,2013-08-10 20:53:00,
2013-08-10 14:32:00,76.0,43.0,-100.00,South,183,14.0,21.0,31,0.00,,,0.00,1129.000000,,2013-08-10 21:32:00,
2013-08-10 14:42:00,76.0,43.0,-100.00,South,183,14.0,21.0,31,0.00,,,0.00,1129.000000,,2013-08-10 21:42:00,
2013-08-10 14:52:00,76.0,43.0,-100.00,South,183,14.0,21.0,31,0.00,,,0.00,1129.000000,,2013-08-10 21:52:00,
2013-08-10 15:43:00,76.0,43.0,-100.00,South,183,14.0,23.0,31,0.00,,,0.00,1067.000000,,2013-08-10 22:43:00,
2013-08-10 15:52:00,76.0,43.0,-100.00,South,183,14.0,23.0,31,0.00,,,0.00,1067.000000,,2013-08-10 22:52:00,
2013-08-10 16:32:00,76.0,45.0,-100.00,South,186,14.0,22.0,33,0.00,,,0.00,937.000000,,2013-08-10 23:32:00,
2013-08-10 16:43:00,76.0,45.0,-100.00,South,186,14.0,22.0,33,0.00,,,0.00,937.000000,,2013-08-10 23:43:00,
2013-08-10 16:53:00,76.0,45.0,-100.00,South,186,14.0,22.0,33,0.00,,,0.00,937.000000,,2013-08-10 23:53:00,
2013-08-10 17:32:00,73.0,43.0,-100.00,South,184,12.0,21.0,34,0.00,,,0.00,742.000000,,2013-08-11 00:32:00,
2013-08-10 17:42:00,73.0,43.0,-100.00,South,184,12.0,21.0,34,0.00,,,0.00,742.000000,,2013-08-11 00:42:00,
2013-08-10 17:52:00,73.0,43.0,-100.00,South,184,12.0,21.0,34,0.00,,,0.00,742.000000,,2013-08-11 00:52:00,
2013-08-10 18:32:00,70.0,45.0,-100.00,SSW,192,11.0,19.0,40,0.00,,,0.00,510.000000,,2013-08-11 01:32:00,
2013-08-10 18:43:00,70.0,45.0,-100.00,SSW,192,11.0,19.0,40,0.00,,,0.00,510.000000,,2013-08-11 01:43:00,
2013-08-10 18:53:00,70.0,45.0,-100.00,SSW,192,11.0,19.0,40,0.00,,,0.00,510.000000,,2013-08-11 01:53:00,
2013-08-10 19:32:00,66.0,45.0,-100.00,SSW,193,9.0,16.0,47,0.00,,,0.00,255.000000,,2013-08-11 02:32:00,
2013-08-10 19:43:00,66.0,45.0,-100.00,SSW,193,9.0,16.0,47,0.00,,,0.00,255.000000,,2013-08-11 02:43:00,
2013-08-10 19:54:00,66.0,45.0,-100.00,SSW,193,9.0,16.0,47,0.00,,,0.00,255.000000,,2013-08-11 02:54:00,
2013-08-10 20:34:00,62.0,46.0,-100.00,SSW,194,8.0,13.0,55,0.00,,,0.00,40.000000,,2013-08-11 03:34:00,
2013-08-10 20:43:00,62.0,46.0,-100.00,SSW,194,8.0,13.0,55,0.00,,,0.00,40.000000,,2013-08-11 03:43:00,
2013-08-10 20:53:00,62.0,46.0,-100.00,SSW,194,8.0,13.0,55,0.00,,,0.00,40.000000,,2013-08-11 03:53:00,
2013-08-10 21:32:00,64.0,42.0,-100.00,West,268,5.0,10.0,45,0.00,,,0.00,1.000000,,2013-08-11 04:32:00,
2013-08-10 21:42:00,64.0,42.0,-100.00,West,268,5.0,10.0,45,0.00,,,0.00,1.000000,,2013-08-11 04:42:00,
2013-08-10 21:53:00,64.0,42.0,-100.00,West,268,5.0,10.0,45,0.00,,,0.00,1.000000,,2013-08-11 04:53:00,
2013-08-10 22:34:00,64.0,41.0,-100.00,West,279,5.0,10.0,43,0.00,,,0.00,1.000000,,2013-08-11 05:34:00,
2013-08-10 22:44:00,64.0,41.0,-100.00,West,279,5.0,10.0,43,0.00,,,0.00,1.000000,,2013-08-11 05:44:00,
2013-08-10 22:52:00,64.0,41.0,-100.00,West,279,5.0,10.0,43,0.00,,,0.00,1.000000,,2013-08-11 05:52:00,
2013-08-10 23:34:00,64.0,40.0,-100.00,WNW,292,8.0,14.0,42,0.00,,,0.00,1.000000,,2013-08-11 06:34:00,
2013-08-10 23:46:00,64.0,40.0,-100.00,WNW,292,8.0,14.0,42,0.00,,,0.00,1.000000,,2013-08-11 06:46:00,
2013-08-10 23:53:00,64.0,40.0,-100.00,WNW,292,8.0,14.0,42,0.00,,,0.00,1.000000,,2013-08-11 06:53:00,